Time,TemperatureF,DewpointF,PressureIn,WindDirection,WindDirectionDegrees,WindSpeedMPH,WindSpeedGustMPH,Humidity,HourlyPrecipIn,Conditions,Clouds,dailyrainin,SoftwareType,DateUTC
2013-11-13 00:00:00,27.0,16.1,30.38,East,94,2.0,20.0,63,0.00,,,0.00,Wunderground v.1.15,2013-11-13 05:00:00,
2013-11-13 00:05:00,27.7,16.7,30.38,East,93,4.0,20.0,63,0.00,,,0.00,Wunderground v.1.15,2013-11-13 05:05:00,
2013-11-13 00:10:00,27.6,16.6,30.38,East,92,4.0,20.0,63,0.00,,,0.00,Wunderground v.1.15,2013-11-13 05:10:00,
2013-11-13 00:15:00,27.4,16.4,30.38,East,92,4.0,20.0,63,0.00,,,0.00,Wunderground v.1.15,2013-11-13 05:15:00,
2013-11-13 00:20:00,27.4,16.4,30.38,East,90,5.0,20.0,63,0.00,,,0.00,Wunderground v.1.15,2013-11-13 05:20:00,
2013-11-13 00:25:00,27.3,16.4,30.38,East,90,4.0,20.0,63,0.00,,,0.00,Wunderground v.1.15,2013-11-13 05:25:00,
2013-11-13 00:30:00,27.2,16.3,30.39,East,90,4.0,20.0,63,0.00,,,0.00,Wunderground v.1.15,2013-11-13 05:30:00,
2013-11-13 00:35:00,27.3,16.4,30.38,East,89,4.0,20.0,63,0.00,,,0.00,Wunderground v.1.15,2013-11-13 05:35:00,
2013-11-13 00:40:00,27.8,16.5,30.39,ENE,62,5.0,5.0,62,0.00,,,0.00,Wunderground v.1.15,2013-11-13 05:40:00,
2013-11-13 00:45:00,28.2,16.5,30.39,ENE,57,5.0,20.0,61,0.00,,,0.00,Wunderground v.1.15,2013-11-13 05:45:00,
2013-11-13 00:50:00,28.5,16.7,30.39,ENE,62,5.0,20.0,61,0.00,,,0.00,Wunderground v.1.15,2013-11-13 05:50:00,
2013-11-13 00:55:00,28.7,16.6,30.38,ENE,61,7.0,20.0,60,0.00,,,0.00,Wunderground v.1.15,2013-11-13 05:55:00,
2013-11-13 01:05:00,28.9,16.7,30.38,ENE,61,7.0,20.0,60,0.00,,,0.00,Wunderground v.1.15,2013-11-13 06:05:00,
2013-11-13 01:10:00,29.0,16.8,30.38,ENE,62,7.0,20.0,60,0.00,,,0.00,Wunderground v.1.15,2013-11-13 06:10:00,
2013-11-13 01:15:00,29.1,16.9,30.38,ENE,63,7.0,20.0,60,0.00,,,0.00,Wunderground v.1.15,2013-11-13 06:15:00,
2013-11-13 01:20:00,29.2,17.0,30.37,ENE,68,7.0,7.0,60,0.00,,,0.00,Wunderground v.1.15,2013-11-13 06:20:00,
2013-11-13 01:25:00,29.2,16.6,30.37,ENE,71,7.0,8.0,59,0.00,,,0.00,Wunderground v.1.15,2013-11-13 06:25:00,
2013-11-13 01:30:00,29.2,16.6,30.37,NE,50,7.0,20.0,59,0.00,,,0.00,Wunderground v.1.15,2013-11-13 06:30:00,
2013-11-13 01:40:00,29.3,16.3,30.37,ENE,62,8.0,8.0,58,0.00,,,0.00,Wunderground v.1.15,2013-11-13 06:40:00,
2013-11-13 01:45:00,29.3,16.3,30.37,ENE,60,7.0,20.0,58,0.00,,,0.00,Wunderground v.1.15,2013-11-13 06:45:00,
2013-11-13 01:50:00,29.3,16.3,30.38,ENE,63,7.0,7.0,58,0.00,,,0.00,Wunderground v.1.15,2013-11-13 06:50:00,
2013-11-13 01:55:00,29.2,16.2,30.38,NE,54,6.0,20.0,58,0.00,,,0.00,Wunderground v.1.15,2013-11-13 06:55:00,
2013-11-13 02:00:00,29.1,16.1,30.38,East,98,6.0,20.0,58,0.00,,,0.00,Wunderground v.1.15,2013-11-13 07:00:00,
2013-11-13 02:10:00,29.3,16.3,30.38,ENE,73,7.0,7.0,58,0.00,,,0.00,Wunderground v.1.15,2013-11-13 07:10:00,
2013-11-13 02:15:00,29.3,15.9,30.38,East,80,7.0,11.0,57,0.00,,,0.00,Wunderground v.1.15,2013-11-13 07:15:00,
2013-11-13 02:20:00,29.3,16.3,30.38,ENE,58,6.0,6.0,58,0.00,,,0.00,Wunderground v.1.15,2013-11-13 07:20:00,
2013-11-13 02:25:00,29.2,16.2,30.38,ENE,77,6.0,20.0,58,0.00,,,0.00,Wunderground v.1.15,2013-11-13 07:25:00,
2013-11-13 02:30:00,29.2,16.2,30.38,ENE,78,6.0,20.0,58,0.00,,,0.00,Wunderground v.1.15,2013-11-13 07:30:00,
2013-11-13 02:35:00,29.2,16.2,30.39,NE,51,5.0,20.0,58,0.00,,,0.00,Wunderground v.1.15,2013-11-13 07:35:00,
2013-11-13 02:40:00,29.0,16.4,30.39,East,80,4.0,4.0,59,0.00,,,0.00,Wunderground v.1.15,2013-11-13 07:40:00,
2013-11-13 02:45:00,28.9,16.4,30.39,East,93,4.0,7.0,59,0.00,,,0.00,Wunderground v.1.15,2013-11-13 07:45:00,
2013-11-13 02:50:00,29.0,16.4,30.39,ESE,103,5.0,20.0,59,0.00,,,0.00,Wunderground v.1.15,2013-11-13 07:50:00,
2013-11-13 02:55:00,29.0,16.4,30.39,NE,46,5.0,20.0,59,0.00,,,0.00,Wunderground v.1.15,2013-11-13 07:55:00,
2013-11-13 03:00:00,28.9,16.4,30.39,ENE,63,4.0,20.0,59,0.00,,,0.00,Wunderground v.1.15,2013-11-13 08:00:00,
2013-11-13 03:05:00,28.8,16.3,30.39,ENE,57,4.0,20.0,59,0.00,,,0.00,Wunderground v.1.15,2013-11-13 08:05:00,
2013-11-13 03:15:00,28.9,16.4,30.39,ENE,69,5.0,20.0,59,0.00,,,0.00,Wunderground v.1.15,2013-11-13 08:15:00,
2013-11-13 03:20:00,28.8,16.3,30.39,NNE,21,5.0,20.0,59,0.00,,,0.00,Wunderground v.1.15,2013-11-13 08:20:00,
2013-11-13 03:25:00,28.9,16.0,30.39,SE,128,4.0,20.0,58,0.00,,,0.00,Wunderground v.1.15,2013-11-13 08:25:00,
2013-11-13 03:30:00,28.8,16.3,30.39,East,86,4.0,4.0,59,0.00,,,0.00,Wunderground v.1.15,2013-11-13 08:30:00,
2013-11-13 03:40:00,28.7,16.2,30.39,ENE,67,5.0,20.0,59,0.00,,,0.00,Wunderground v.1.15,2013-11-13 08:40:00,
2013-11-13 03:45:00,28.8,16.3,30.39,ESE,123,4.0,20.0,59,0.00,,,0.00,Wunderground v.1.15,2013-11-13 08:45:00,
2013-11-13 03:50:00,28.8,15.9,30.39,SE,128,2.0,20.0,58,0.00,,,0.00,Wunderground v.1.15,2013-11-13 08:50:00,
2013-11-13 03:55:00,28.8,15.9,30.39,ENE,78,2.0,20.0,58,0.00,,,0.00,Wunderground v.1.15,2013-11-13 08:55:00,
2013-11-13 04:00:00,28.8,15.9,30.39,ESE,112,2.0,20.0,58,0.00,,,0.00,Wunderground v.1.15,2013-11-13 09:00:00,
2013-11-13 04:05:00,28.9,16.0,30.38,ENE,67,4.0,20.0,58,0.00,,,0.00,Wunderground v.1.15,2013-11-13 09:05:00,
2013-11-13 04:10:00,29.3,15.9,30.38,East,98,6.0,6.0,57,0.00,,,0.00,Wunderground v.1.15,2013-11-13 09:10:00,
2013-11-13 04:20:00,29.5,15.7,30.38,ENE,74,7.0,20.0,56,0.00,,,0.00,Wunderground v.1.15,2013-11-13 09:20:00,
2013-11-13 04:25:00,29.5,15.7,30.38,ENE,75,6.0,20.0,56,0.00,,,0.00,Wunderground v.1.15,2013-11-13 09:25:00,
2013-11-13 04:30:00,29.4,15.6,30.38,ENE,67,6.0,6.0,56,0.00,,,0.00,Wunderground v.1.15,2013-11-13 09:30:00,
2013-11-13 04:35:00,29.3,15.5,30.38,North,10,5.0,9.0,56,0.00,,,0.00,Wunderground v.1.15,2013-11-13 09:35:00,
2013-11-13 04:40:00,29.3,15.5,30.38,NNE,33,6.0,20.0,56,0.00,,,0.00,Wunderground v.1.15,2013-11-13 09:40:00,
2013-11-13 04:50:00,29.3,15.5,30.38,East,86,4.0,4.0,56,0.00,,,0.00,Wunderground v.1.15,2013-11-13 09:50:00,
2013-11-13 04:55:00,29.2,15.4,30.38,East,85,3.0,20.0,56,0.00,,,0.00,Wunderground v.1.15,2013-11-13 09:55:00,
2013-11-13 05:00:00,29.0,15.2,30.39,ESE,104,2.0,2.0,56,0.00,,,0.00,Wunderground v.1.15,2013-11-13 10:00:00,
2013-11-13 05:05:00,28.9,15.2,30.38,ENE,69,2.0,7.0,56,0.00,,,0.00,Wunderground v.1.15,2013-11-13 10:05:00,
2013-11-13 05:10:00,28.8,15.1,30.38,East,94,1.0,1.0,56,0.00,,,0.00,Wunderground v.1.15,2013-11-13 10:10:00,
2013-11-13 05:15:00,28.3,15.0,30.38,East,94,1.0,2.0,57,0.00,,,0.00,Wunderground v.1.15,2013-11-13 10:15:00,
2013-11-13 05:25:00,27.6,15.1,30.38,East,94,1.0,20.0,59,0.00,,,0.00,Wunderground v.1.15,2013-11-13 10:25:00,
2013-11-13 05:30:00,27.1,15.0,30.38,East,94,0.0,20.0,60,0.00,,,0.00,Wunderground v.1.15,2013-11-13 10:30:00,
2013-11-13 05:35:00,26.7,14.7,30.38,East,94,0.0,20.0,60,0.00,,,0.00,Wunderground v.1.15,2013-11-13 10:35:00,
2013-11-13 05:40:00,26.6,14.9,30.38,East,94,0.0,20.0,61,0.00,,,0.00,Wunderground v.1.15,2013-11-13 10:40:00,
2013-11-13 05:45:00,27.4,14.9,30.39,NE,49,3.0,20.0,59,0.00,,,0.00,Wunderground v.1.15,2013-11-13 10:45:00,
2013-11-13 05:55:00,28.1,15.2,30.38,ENE,67,2.0,20.0,58,0.00,,,0.00,Wunderground v.1.15,2013-11-13 10:55:00,
2013-11-13 06:00:00,28.3,15.4,30.38,NE,55,4.0,20.0,58,0.00,,,0.00,Wunderground v.1.15,2013-11-13 11:00:00,
2013-11-13 06:05:00,28.8,15.5,30.38,East,96,5.0,20.0,57,0.00,,,0.00,Wunderground v.1.15,2013-11-13 11:05:00,
2013-11-13 06:10:00,29.1,15.3,30.39,East,92,6.0,6.0,56,0.00,,,0.00,Wunderground v.1.15,2013-11-13 11:10:00,
2013-11-13 06:15:00,29.3,15.1,30.39,ESE,105,5.0,20.0,55,0.00,,,0.00,Wunderground v.1.15,2013-11-13 11:15:00,
2013-11-13 06:20:00,29.3,15.1,30.39,SE,140,5.0,5.0,55,0.00,,,0.00,Wunderground v.1.15,2013-11-13 11:20:00,
2013-11-13 06:30:00,29.3,15.1,30.40,East,84,6.0,20.0,55,0.00,,,0.00,Wunderground v.1.15,2013-11-13 11:30:00,
2013-11-13 06:35:00,29.2,14.6,30.40,East,95,5.0,20.0,54,0.00,,,0.00,Wunderground v.1.15,2013-11-13 11:35:00,
2013-11-13 06:40:00,29.3,13.8,30.40,ENE,65,5.0,20.0,52,0.00,,,0.00,Wunderground v.1.15,2013-11-13 11:40:00,
2013-11-13 06:45:00,29.6,14.1,30.40,ENE,65,7.0,20.0,52,0.00,,,0.00,Wunderground v.1.15,2013-11-13 11:45:00,
2013-11-13 06:50:00,29.5,14.5,30.40,ENE,60,7.0,7.0,53,0.00,,,0.00,Wunderground v.1.15,2013-11-13 11:50:00,
2013-11-13 07:00:00,29.2,14.2,30.41,ENE,63,6.0,20.0,53,0.00,,,0.00,Wunderground v.1.15,2013-11-13 12:00:00,
2013-11-13 07:05:00,29.4,13.9,30.41,ENE,69,7.0,20.0,52,0.00,,,0.00,Wunderground v.1.15,2013-11-13 12:05:00,
2013-11-13 07:10:00,29.6,14.1,30.41,East,80,8.0,8.0,52,0.00,,,0.00,Wunderground v.1.15,2013-11-13 12:10:00,
2013-11-13 07:15:00,29.8,13.9,30.41,ENE,76,8.0,20.0,51,0.00,,,0.00,Wunderground v.1.15,2013-11-13 12:15:00,
2013-11-13 07:20:00,29.9,13.5,30.42,ENE,75,8.0,8.0,50,0.00,,,0.00,Wunderground v.1.15,2013-11-13 12:20:00,
2013-11-13 07:25:00,30.1,13.7,30.42,ENE,71,8.0,20.0,50,0.00,,,0.00,Wunderground v.1.15,2013-11-13 12:25:00,
2013-11-13 07:35:00,30.4,14.0,30.42,East,88,9.0,20.0,50,0.00,,,0.00,Wunderground v.1.15,2013-11-13 12:35:00,
2013-11-13 07:40:00,30.5,14.5,30.43,ENE,78,8.0,8.0,51,0.00,,,0.00,Wunderground v.1.15,2013-11-13 12:40:00,
2013-11-13 07:45:00,30.6,13.7,30.43,ENE,77,8.0,20.0,49,0.00,,,0.00,Wunderground v.1.15,2013-11-13 12:45:00,
2013-11-13 07:50:00,30.8,14.3,30.44,ENE,60,9.0,9.0,50,0.00,,,0.00,Wunderground v.1.15,2013-11-13 12:50:00,
2013-11-13 07:55:00,31.0,13.6,30.44,ENE,57,8.0,10.0,48,0.00,,,0.00,Wunderground v.1.15,2013-11-13 12:55:00,
2013-11-13 08:00:00,31.2,14.2,30.44,ENE,67,8.0,8.0,49,0.00,,,0.00,Wunderground v.1.15,2013-11-13 13:00:00,
2013-11-13 08:10:00,31.6,14.6,30.44,NE,53,6.0,8.0,49,0.00,,,0.00,Wunderground v.1.15,2013-11-13 13:10:00,
2013-11-13 08:15:00,31.9,13.9,30.44,ENE,69,7.0,8.0,47,0.00,,,0.00,Wunderground v.1.15,2013-11-13 13:15:00,
2013-11-13 08:20:00,32.1,14.1,30.44,ENE,64,8.0,8.0,47,0.00,,,0.00,Wunderground v.1.15,2013-11-13 13:20:00,
2013-11-13 08:25:00,32.4,14.4,30.45,East,98,7.0,8.0,47,0.00,,,0.00,Wunderground v.1.15,2013-11-13 13:25:00,
2013-11-13 08:30:00,32.6,14.6,30.45,NE,51,7.0,8.0,47,0.00,,,0.00,Wunderground v.1.15,2013-11-13 13:30:00,
2013-11-13 08:40:00,33.0,14.9,30.44,ENE,65,7.0,10.0,47,0.00,,,0.00,Wunderground v.1.15,2013-11-13 13:40:00,
2013-11-13 08:45:00,33.3,15.2,30.45,East,86,6.0,10.0,47,0.00,,,0.00,Wunderground v.1.15,2013-11-13 13:45:00,
2013-11-13 08:50:00,33.6,15.5,30.44,North,5,6.0,11.0,47,0.00,,,0.00,Wunderground v.1.15,2013-11-13 13:50:00,
2013-11-13 08:55:00,33.8,15.7,30.45,East,92,6.0,11.0,47,0.00,,,0.00,Wunderground v.1.15,2013-11-13 13:55:00,
2013-11-13 09:00:00,34.0,15.4,30.44,ESE,106,6.0,6.0,46,0.00,,,0.00,Wunderground v.1.15,2013-11-13 14:00:00,
2013-11-13 09:10:00,34.6,15.4,30.44,ENE,69,6.0,7.0,45,0.00,,,0.00,Wunderground v.1.15,2013-11-13 14:10:00,
2013-11-13 09:15:00,34.9,15.7,30.44,East,84,5.0,7.0,45,0.00,,,0.00,Wunderground v.1.15,2013-11-13 14:15:00,
2013-11-13 09:20:00,35.0,15.3,30.44,East,89,4.0,5.0,44,0.00,,,0.00,Wunderground v.1.15,2013-11-13 14:20:00,
2013-11-13 09:25:00,35.3,15.5,30.44,NE,44,5.0,6.0,44,0.00,,,0.00,Wunderground v.1.15,2013-11-13 14:25:00,
2013-11-13 09:30:00,35.6,15.8,30.44,ENE,57,6.0,6.0,44,0.00,,,0.00,Wunderground v.1.15,2013-11-13 14:30:00,
2013-11-13 09:35:00,36.0,16.2,30.45,ESE,103,7.0,8.0,44,0.00,,,0.00,Wunderground v.1.15,2013-11-13 14:35:00,
2013-11-13 09:40:00,36.5,16.1,30.44,ENE,64,6.0,9.0,43,0.00,,,0.00,Wunderground v.1.15,2013-11-13 14:40:00,
2013-11-13 09:45:00,36.9,15.9,30.44,ENE,65,6.0,9.0,42,0.00,,,0.00,Wunderground v.1.15,2013-11-13 14:45:00,
2013-11-13 09:55:00,37.6,15.4,30.44,East,100,5.0,7.0,40,0.00,,,0.00,Wunderground v.1.15,2013-11-13 14:55:00,
2013-11-13 10:00:00,37.8,15.6,30.45,NNE,33,5.0,9.0,40,0.00,,,0.00,Wunderground v.1.15,2013-11-13 15:00:00,
2013-11-13 10:10:00,38.0,15.2,30.45,NE,55,5.0,5.0,39,0.00,,,0.00,Wunderground v.1.15,2013-11-13 15:10:00,
2013-11-13 10:25:00,39.5,16.6,30.45,NE,55,4.0,5.0,39,0.00,,,0.00,Wunderground v.1.15,2013-11-13 15:25:00,
2013-11-13 10:30:00,39.9,15.7,30.45,NNE,26,5.0,5.0,37,0.00,,,0.00,Wunderground v.1.15,2013-11-13 15:30:00,
2013-11-13 10:35:00,40.0,15.8,30.45,ENE,67,3.0,5.0,37,0.00,,,0.00,Wunderground v.1.15,2013-11-13 15:35:00,
2013-11-13 10:45:00,40.7,15.8,30.45,NE,39,2.0,2.0,36,0.00,,,0.00,Wunderground v.1.15,2013-11-13 15:45:00,
2013-11-13 10:50:00,41.1,15.5,30.44,East,93,2.0,4.0,35,0.00,,,0.00,Wunderground v.1.15,2013-11-13 15:50:00,
2013-11-13 10:55:00,41.3,15.7,30.45,NNE,30,3.0,8.0,35,0.00,,,0.00,Wunderground v.1.15,2013-11-13 15:55:00,
2013-11-13 11:00:00,41.8,16.1,30.45,NE,47,3.0,6.0,35,0.00,,,0.00,Wunderground v.1.15,2013-11-13 16:00:00,
2013-11-13 11:10:00,42.1,15.7,30.45,NE,37,5.0,5.0,34,0.00,,,0.00,Wunderground v.1.15,2013-11-13 16:10:00,
2013-11-13 11:15:00,42.7,16.2,30.45,North,11,4.0,5.0,34,0.00,,,0.00,Wunderground v.1.15,2013-11-13 16:15:00,
2013-11-13 11:20:00,43.1,16.6,30.45,NNE,28,5.0,5.0,34,0.00,,,0.00,Wunderground v.1.15,2013-11-13 16:20:00,
2013-11-13 11:35:00,44.2,16.9,30.44,NE,41,4.0,7.0,33,0.00,,,0.00,Wunderground v.1.15,2013-11-13 16:35:00,
2013-11-13 11:40:00,43.9,16.6,30.44,East,99,5.0,5.0,33,0.00,,,0.00,Wunderground v.1.15,2013-11-13 16:40:00,
2013-11-13 11:45:00,44.0,16.0,30.44,East,93,3.0,5.0,32,0.00,,,0.00,Wunderground v.1.15,2013-11-13 16:45:00,
2013-11-13 11:55:00,44.6,16.5,30.44,North,355,2.0,3.0,32,0.00,,,0.00,Wunderground v.1.15,2013-11-13 16:55:00,
2013-11-13 12:00:00,45.0,16.9,30.43,North,355,1.0,1.0,32,0.00,,,0.00,Wunderground v.1.15,2013-11-13 17:00:00,
2013-11-13 12:10:00,45.5,17.3,30.42,SSW,210,2.0,6.0,32,0.00,,,0.00,Wunderground v.1.15,2013-11-13 17:10:00,
2013-11-13 12:20:00,45.9,16.9,30.42,SSW,194,3.0,4.0,31,0.00,,,0.00,Wunderground v.1.15,2013-11-13 17:20:00,
2013-11-13 12:25:00,46.1,17.1,30.41,SSW,203,3.0,4.0,31,0.00,,,0.00,Wunderground v.1.15,2013-11-13 17:25:00,
2013-11-13 12:30:00,46.5,17.4,30.41,SW,232,2.0,2.0,31,0.00,,,0.00,Wunderground v.1.15,2013-11-13 17:30:00,
2013-11-13 12:40:00,47.1,17.2,30.41,West,267,1.0,1.0,30,0.00,,,0.00,Wunderground v.1.15,2013-11-13 17:40:00,
2013-11-13 12:45:00,47.4,17.5,30.40,WNW,283,0.0,1.0,30,0.00,,,0.00,Wunderground v.1.15,2013-11-13 17:45:00,
2013-11-13 12:50:00,47.7,17.7,30.41,SW,221,1.0,2.0,30,0.00,,,0.00,Wunderground v.1.15,2013-11-13 17:50:00,
2013-11-13 12:55:00,47.7,16.9,30.41,SSW,213,1.0,2.0,29,0.00,,,0.00,Wunderground v.1.15,2013-11-13 17:55:00,
2013-11-13 13:00:00,47.9,17.9,30.40,SE,133,0.0,0.0,30,0.00,,,0.00,Wunderground v.1.15,2013-11-13 18:00:00,
2013-11-13 13:10:00,48.5,17.6,30.40,NE,42,1.0,1.0,29,0.00,,,0.00,Wunderground v.1.15,2013-11-13 18:10:00,
2013-11-13 13:20:00,49.4,18.4,30.40,ESE,114,0.0,0.0,29,0.00,,,0.00,Wunderground v.1.15,2013-11-13 18:20:00,
2013-11-13 13:25:00,49.6,17.8,30.39,SW,227,0.0,5.0,28,0.00,,,0.00,Wunderground v.1.15,2013-11-13 18:25:00,
2013-11-13 13:30:00,49.4,17.6,30.39,NNW,338,0.0,0.0,28,0.00,,,0.00,Wunderground v.1.15,2013-11-13 18:30:00,
2013-11-13 13:35:00,49.9,18.9,30.38,NNW,338,0.0,0.0,29,0.00,,,0.00,Wunderground v.1.15,2013-11-13 18:35:00,
2013-11-13 13:45:00,50.5,18.6,30.38,SSW,211,1.0,6.0,28,0.00,,,0.00,Wunderground v.1.15,2013-11-13 18:45:00,
2013-11-13 13:50:00,50.1,18.2,30.38,East,84,2.0,2.0,28,0.00,,,0.00,Wunderground v.1.15,2013-11-13 18:50:00,
2013-11-13 14:05:00,50.0,17.3,30.37,East,90,1.0,2.0,27,0.00,,,0.00,Wunderground v.1.15,2013-11-13 19:05:00,
2013-11-13 14:10:00,50.5,17.7,30.37,NNE,13,2.0,6.0,27,0.00,,,0.00,Wunderground v.1.15,2013-11-13 19:10:00,
2013-11-13 14:20:00,50.8,17.1,30.36,NE,56,4.0,4.0,26,0.00,,,0.00,Wunderground v.1.15,2013-11-13 19:20:00,
2013-11-13 14:25:00,50.7,17.9,30.36,NE,34,3.0,7.0,27,0.00,,,0.00,Wunderground v.1.15,2013-11-13 19:25:00,
2013-11-13 14:30:00,50.3,17.5,30.36,ENE,74,4.0,6.0,27,0.00,,,0.00,Wunderground v.1.15,2013-11-13 19:30:00,
2013-11-13 14:35:00,50.2,17.5,30.37,NNE,19,4.0,6.0,27,0.00,,,0.00,Wunderground v.1.15,2013-11-13 19:35:00,
2013-11-13 14:40:00,50.6,18.6,30.37,ENE,76,2.0,5.0,28,0.00,,,0.00,Wunderground v.1.15,2013-11-13 19:40:00,
2013-11-13 14:45:00,50.7,17.9,30.37,East,92,2.0,5.0,27,0.00,,,0.00,Wunderground v.1.15,2013-11-13 19:45:00,
2013-11-13 14:50:00,50.7,17.9,30.37,NNE,27,2.0,7.0,27,0.00,,,0.00,Wunderground v.1.15,2013-11-13 19:50:00,
2013-11-13 14:55:00,50.4,17.6,30.37,NE,56,2.0,7.0,27,0.00,,,0.00,Wunderground v.1.15,2013-11-13 19:55:00,
2013-11-13 15:00:00,50.6,17.8,30.36,NE,55,1.0,1.0,27,0.00,,,0.00,Wunderground v.1.15,2013-11-13 20:00:00,
2013-11-13 15:10:00,50.9,18.1,30.36,NNE,12,4.0,5.0,27,0.00,,,0.00,Wunderground v.1.15,2013-11-13 20:10:00,
2013-11-13 15:15:00,50.7,17.9,30.36,NW,319,5.0,5.0,27,0.00,,,0.00,Wunderground v.1.15,2013-11-13 20:15:00,
2013-11-13 15:20:00,50.6,18.6,30.36,NE,46,4.0,5.0,28,0.00,,,0.00,Wunderground v.1.15,2013-11-13 20:20:00,
2013-11-13 15:30:00,50.6,18.6,30.36,ENE,66,4.0,4.0,28,0.00,,,0.00,Wunderground v.1.15,2013-11-13 20:30:00,
2013-11-13 15:35:00,50.4,18.5,30.36,East,96,3.0,4.0,28,0.00,,,0.00,Wunderground v.1.15,2013-11-13 20:35:00,
2013-11-13 15:40:00,50.3,18.4,30.36,East,92,1.0,1.0,28,0.00,,,0.00,Wunderground v.1.15,2013-11-13 20:40:00,
2013-11-13 15:45:00,50.3,17.5,30.36,NE,48,2.0,6.0,27,0.00,,,0.00,Wunderground v.1.15,2013-11-13 20:45:00,
2013-11-13 15:50:00,50.0,18.1,30.36,East,80,3.0,3.0,28,0.00,,,0.00,Wunderground v.1.15,2013-11-13 20:50:00,
2013-11-13 16:00:00,49.7,18.7,30.37,NNE,15,5.0,6.0,29,0.00,,,0.00,Wunderground v.1.15,2013-11-13 21:00:00,
2013-11-13 16:10:00,49.4,19.2,30.37,NNE,13,5.0,6.0,30,0.00,,,0.00,Wunderground v.1.15,2013-11-13 21:10:00,
2013-11-13 16:15:00,49.2,19.0,30.37,ENE,65,5.0,6.0,30,0.00,,,0.00,Wunderground v.1.15,2013-11-13 21:15:00,
2013-11-13 16:20:00,49.1,19.0,30.38,NE,47,5.0,7.0,30,0.00,,,0.00,Wunderground v.1.15,2013-11-13 21:20:00,
2013-11-13 16:25:00,49.0,19.6,30.37,ENE,68,4.0,7.0,31,0.00,,,0.00,Wunderground v.1.15,2013-11-13 21:25:00,
2013-11-13 16:30:00,48.7,19.4,30.38,NE,49,4.0,4.0,31,0.00,,,0.00,Wunderground v.1.15,2013-11-13 21:30:00,
2013-11-13 16:35:00,48.4,19.9,30.37,NE,50,5.0,7.0,32,0.00,,,0.00,Wunderground v.1.15,2013-11-13 21:35:00,
2013-11-13 16:40:00,48.0,19.5,30.37,NE,52,5.0,5.0,32,0.00,,,0.00,Wunderground v.1.15,2013-11-13 21:40:00,
2013-11-13 16:45:00,47.4,19.7,30.37,ENE,76,5.0,5.0,33,0.00,,,0.00,Wunderground v.1.15,2013-11-13 21:45:00,
2013-11-13 16:50:00,46.9,19.3,30.37,ENE,70,4.0,4.0,33,0.00,,,0.00,Wunderground v.1.15,2013-11-13 21:50:00,
2013-11-13 16:55:00,46.5,19.6,30.37,ENE,66,4.0,4.0,34,0.00,,,0.00,Wunderground v.1.15,2013-11-13 21:55:00,
2013-11-13 17:05:00,45.7,20.2,30.38,ENE,62,3.0,4.0,36,0.00,,,0.00,Wunderground v.1.15,2013-11-13 22:05:00,
2013-11-13 17:10:00,44.9,19.5,30.38,ENE,61,3.0,4.0,36,0.00,,,0.00,Wunderground v.1.15,2013-11-13 22:10:00,
2013-11-13 17:20:00,43.8,19.8,30.38,ENE,61,4.0,4.0,38,0.00,,,0.00,Wunderground v.1.15,2013-11-13 22:20:00,
2013-11-13 17:25:00,43.1,19.8,30.39,ENE,61,4.0,5.0,39,0.00,,,0.00,Wunderground v.1.15,2013-11-13 22:25:00,
2013-11-13 17:30:00,42.7,20.0,30.38,ENE,61,3.0,5.0,40,0.00,,,0.00,Wunderground v.1.15,2013-11-13 22:30:00,
2013-11-13 17:35:00,42.3,19.7,30.39,ENE,57,3.0,5.0,40,0.00,,,0.00,Wunderground v.1.15,2013-11-13 22:35:00,
2013-11-13 17:45:00,41.7,19.7,30.39,NE,53,4.0,6.0,41,0.00,,,0.00,Wunderground v.1.15,2013-11-13 22:45:00,
2013-11-13 17:50:00,41.5,19.5,30.39,NE,47,5.0,5.0,41,0.00,,,0.00,Wunderground v.1.15,2013-11-13 22:50:00,
2013-11-13 17:55:00,41.4,19.4,30.39,NE,40,5.0,5.0,41,0.00,,,0.00,Wunderground v.1.15,2013-11-13 22:55:00,
2013-11-13 18:00:00,41.2,19.8,30.39,ENE,57,5.0,5.0,42,0.00,,,0.00,Wunderground v.1.15,2013-11-13 23:00:00,
2013-11-13 18:05:00,40.9,19.5,30.40,NE,54,4.0,10.0,42,0.00,,,0.00,Wunderground v.1.15,2013-11-13 23:05:00,
2013-11-13 18:10:00,40.7,19.4,30.39,ENE,64,4.0,4.0,42,0.00,,,0.00,Wunderground v.1.15,2013-11-13 23:10:00,
2013-11-13 18:15:00,40.6,19.3,30.40,NE,55,4.0,10.0,42,0.00,,,0.00,Wunderground v.1.15,2013-11-13 23:15:00,
2013-11-13 18:25:00,40.3,19.0,30.41,NE,42,4.0,10.0,42,0.00,,,0.00,Wunderground v.1.15,2013-11-13 23:25:00,
2013-11-13 18:30:00,40.1,19.4,30.40,ENE,64,4.0,4.0,43,0.00,,,0.00,Wunderground v.1.15,2013-11-13 23:30:00,
2013-11-13 18:35:00,39.8,19.1,30.41,ENE,64,4.0,10.0,43,0.00,,,0.00,Wunderground v.1.15,2013-11-13 23:35:00,
2013-11-13 18:40:00,39.6,18.9,30.41,ENE,64,3.0,3.0,43,0.00,,,0.00,Wunderground v.1.15,2013-11-13 23:40:00,
2013-11-13 18:45:00,39.3,19.2,30.41,ENE,64,1.0,10.0,44,0.00,,,0.00,Wunderground v.1.15,2013-11-13 23:45:00,
2013-11-13 18:50:00,39.0,18.9,30.41,ENE,64,1.0,1.0,44,0.00,,,0.00,Wunderground v.1.15,2013-11-13 23:50:00,
2013-11-13 19:00:00,38.2,18.7,30.41,ENE,64,0.0,10.0,45,0.00,,,0.00,Wunderground v.1.15,2013-11-14 00:00:00,
2013-11-13 19:05:00,37.4,19.0,30.41,ENE,64,0.0,10.0,47,0.00,,,0.00,Wunderground v.1.15,2013-11-14 00:05:00,
2013-11-13 19:10:00,36.7,18.3,30.41,ENE,64,0.0,10.0,47,0.00,,,0.00,Wunderground v.1.15,2013-11-14 00:10:00,
2013-11-13 19:15:00,36.4,19.0,30.41,ENE,64,0.0,10.0,49,0.00,,,0.00,Wunderground v.1.15,2013-11-14 00:15:00,
2013-11-13 19:20:00,36.4,19.5,30.41,ENE,64,0.0,10.0,50,0.00,,,0.00,Wunderground v.1.15,2013-11-14 00:20:00,
2013-11-13 19:25:00,36.3,19.4,30.41,ENE,64,0.0,10.0,50,0.00,,,0.00,Wunderground v.1.15,2013-11-14 00:25:00,
2013-11-13 19:30:00,36.1,19.2,30.41,ENE,64,0.0,10.0,50,0.00,,,0.00,Wunderground v.1.15,2013-11-14 00:30:00,
2013-11-13 19:35:00,35.9,19.5,30.41,ENE,64,0.0,10.0,51,0.00,,,0.00,Wunderground v.1.15,2013-11-14 00:35:00,
2013-11-13 19:45:00,35.2,19.3,30.41,ENE,64,0.0,10.0,52,0.00,,,0.00,Wunderground v.1.15,2013-11-14 00:45:00,
2013-11-13 19:50:00,34.6,19.6,30.41,ENE,64,0.0,10.0,54,0.00,,,0.00,Wunderground v.1.15,2013-11-14 00:50:00,
2013-11-13 19:55:00,34.0,19.5,30.41,ENE,64,0.0,10.0,55,0.00,,,0.00,Wunderground v.1.15,2013-11-14 00:55:00,
2013-11-13 20:00:00,33.4,19.4,30.41,ENE,64,0.0,10.0,56,0.00,,,0.00,Wunderground v.1.15,2013-11-14 01:00:00,
2013-11-13 20:05:00,33.1,19.5,30.41,ENE,64,0.0,10.0,57,0.00,,,0.00,Wunderground v.1.15,2013-11-14 01:05:00,
2013-11-13 20:10:00,33.2,19.2,30.41,ENE,64,0.0,10.0,56,0.00,,,0.00,Wunderground v.1.15,2013-11-14 01:10:00,
2013-11-13 20:15:00,33.1,19.5,30.41,ENE,64,0.0,10.0,57,0.00,,,0.00,Wunderground v.1.15,2013-11-14 01:15:00,
2013-11-13 20:25:00,32.4,18.8,30.41,ENE,64,0.0,10.0,57,0.00,,,0.00,Wunderground v.1.15,2013-11-14 01:25:00,
2013-11-13 20:30:00,32.1,19.4,30.42,ENE,64,0.0,10.0,59,0.00,,,0.00,Wunderground v.1.15,2013-11-14 01:30:00,
2013-11-13 20:35:00,31.7,19.4,30.41,ENE,64,0.0,10.0,60,0.00,,,0.00,Wunderground v.1.15,2013-11-14 01:35:00,
2013-11-13 20:40:00,31.4,19.1,30.41,ENE,64,0.0,10.0,60,0.00,,,0.00,Wunderground v.1.15,2013-11-14 01:40:00,
2013-11-13 20:45:00,31.1,18.8,30.42,ENE,64,0.0,10.0,60,0.00,,,0.00,Wunderground v.1.15,2013-11-14 01:45:00,
2013-11-13 20:50:00,30.8,18.9,30.42,ENE,64,0.0,10.0,61,0.00,,,0.00,Wunderground v.1.15,2013-11-14 01:50:00,
2013-11-13 21:00:00,30.6,19.9,30.41,ENE,64,0.0,10.0,64,0.00,,,0.00,Wunderground v.1.15,2013-11-14 02:00:00,
2013-11-13 21:05:00,30.2,19.1,30.41,ENE,64,0.0,10.0,63,0.00,,,0.00,Wunderground v.1.15,2013-11-14 02:05:00,
2013-11-13 21:10:00,29.9,19.9,30.41,ENE,64,0.0,10.0,66,0.00,,,0.00,Wunderground v.1.15,2013-11-14 02:10:00,
2013-11-13 21:15:00,29.6,19.6,30.41,ENE,64,0.0,10.0,66,0.00,,,0.00,Wunderground v.1.15,2013-11-14 02:15:00,
2013-11-13 21:20:00,29.4,20.1,30.41,ENE,64,0.0,10.0,68,0.00,,,0.00,Wunderground v.1.15,2013-11-14 02:20:00,
2013-11-13 21:30:00,28.9,20.0,30.41,ENE,64,0.0,10.0,69,0.00,,,0.00,Wunderground v.1.15,2013-11-14 02:30:00,
2013-11-13 21:35:00,28.6,19.4,30.41,ENE,64,0.0,10.0,68,0.00,,,0.00,Wunderground v.1.15,2013-11-14 02:35:00,
2013-11-13 21:40:00,28.6,19.4,30.41,ENE,64,0.0,10.0,68,0.00,,,0.00,Wunderground v.1.15,2013-11-14 02:40:00,
2013-11-13 21:45:00,29.0,19.8,30.41,ENE,64,0.0,10.0,68,0.00,,,0.00,Wunderground v.1.15,2013-11-14 02:45:00,
2013-11-13 21:50:00,28.8,19.9,30.41,ENE,64,0.0,10.0,69,0.00,,,0.00,Wunderground v.1.15,2013-11-14 02:50:00,
2013-11-13 21:55:00,28.5,20.3,30.41,ENE,64,0.0,10.0,71,0.00,,,0.00,Wunderground v.1.15,2013-11-14 02:55:00,
2013-11-13 22:05:00,28.1,20.2,30.40,ENE,64,0.0,10.0,72,0.00,,,0.00,Wunderground v.1.15,2013-11-14 03:05:00,
2013-11-13 22:10:00,27.9,20.4,30.40,ENE,64,0.0,10.0,73,0.00,,,0.00,Wunderground v.1.15,2013-11-14 03:10:00,
2013-11-13 22:15:00,27.6,20.1,30.41,ENE,64,0.0,10.0,73,0.00,,,0.00,Wunderground v.1.15,2013-11-14 03:15:00,
2013-11-13 22:20:00,27.5,20.0,30.40,ENE,64,0.0,10.0,73,0.00,,,0.00,Wunderground v.1.15,2013-11-14 03:20:00,
2013-11-13 22:25:00,27.2,19.7,30.40,ENE,64,0.0,10.0,73,0.00,,,0.00,Wunderground v.1.15,2013-11-14 03:25:00,
2013-11-13 22:35:00,27.0,19.5,30.40,ENE,64,0.0,10.0,73,0.00,,,0.00,Wunderground v.1.15,2013-11-14 03:35:00,
2013-11-13 22:40:00,26.9,19.7,30.40,ENE,64,0.0,10.0,74,0.00,,,0.00,Wunderground v.1.15,2013-11-14 03:40:00,
2013-11-13 22:45:00,26.8,19.6,30.40,ENE,64,0.0,10.0,74,0.00,,,0.00,Wunderground v.1.15,2013-11-14 03:45:00,
2013-11-13 22:50:00,26.6,19.4,30.40,ENE,64,0.0,10.0,74,0.00,,,0.00,Wunderground v.1.15,2013-11-14 03:50:00,
2013-11-13 22:55:00,26.5,19.6,30.40,ENE,64,0.0,10.0,75,0.00,,,0.00,Wunderground v.1.15,2013-11-14 03:55:00,
2013-11-13 23:00:00,26.6,20.1,30.40,ENE,64,0.0,10.0,76,0.00,,,0.00,Wunderground v.1.15,2013-11-14 04:00:00,
2013-11-13 23:10:00,26.5,20.0,30.40,ENE,64,0.0,10.0,76,0.00,,,0.00,Wunderground v.1.15,2013-11-14 04:10:00,
2013-11-13 23:15:00,26.5,20.0,30.40,ENE,64,0.0,10.0,76,0.00,,,0.00,Wunderground v.1.15,2013-11-14 04:15:00,
2013-11-13 23:20:00,26.4,19.5,30.40,ENE,64,0.0,10.0,75,0.00,,,0.00,Wunderground v.1.15,2013-11-14 04:20:00,
2013-11-13 23:25:00,26.2,19.4,30.39,ENE,64,0.0,10.0,75,0.00,,,0.00,Wunderground v.1.15,2013-11-14 04:25:00,
2013-11-13 23:30:00,26.1,19.6,30.40,ENE,64,0.0,10.0,76,0.00,,,0.00,Wunderground v.1.15,2013-11-14 04:30:00,
2013-11-13 23:40:00,26.1,19.6,30.39,ENE,64,0.0,10.0,76,0.00,,,0.00,Wunderground v.1.15,2013-11-14 04:40:00,
2013-11-13 23:45:00,26.1,19.3,30.39,ENE,64,0.0,10.0,75,0.00,,,0.00,Wunderground v.1.15,2013-11-14 04:45:00,
2013-11-13 23:50:00,26.1,19.6,30.39,ENE,64,0.0,10.0,76,0.00,,,0.00,Wunderground v.1.15,2013-11-14 04:50:00,
2013-11-13 23:55:00,26.0,19.5,30.39,ENE,64,0.0,10.0,76,0.00,,,0.00,Wunderground v.1.15,2013-11-14 04:55:00,